sat.trackr.live / text

‹ back to catalog

STARLINK-3634

NORAD 51798 · 2022-017AG

PAYLOAD ACTIVE UNKNOWN

§ Identity

Operator
Country
US
Launch date
2022-02-25
Launch site
AFWTR
Launch vehicle
Mass (kg)
RCS (m²)

Purposes: comms

External: N2YO · Heavens-Above · Gunter

§ Orbital elements

Epoch: 2026-05-25T01:17:11.636160Z

Period
95.44 min
Inclination
53.2139°
Eccentricity
0.0001218
Mean motion
15.08835084 rev/d
Perigee alt
538.9 km
Apogee alt
540.6 km
Semi-major
6,917.9 km
B*
-3.0242e-5
RAAN
6.3082°
Arg perigee
95.7497°
Mean anomaly
264.3634°
Rev number
23,549

§ Raw data

STARLINK-36341 51798U 22017AG  26145.05360690 -.00000769  00000+0 -30242-4 0  99972 51798  53.2139   6.3082 0001218  95.7497 264.3634 15.08835084235490

JSON: /api/v1/satellites/51798 · /tle

For live sub-satellite position, see the globe view (requires WebGL).

§ Visibility from observer

Set your observer location to see the next 7 days of passes ≥ 10°. The values pass through the URL so the page stays shareable.

No JS? Fill the form by hand. The geolocation button needs JavaScript.